SB KEPS @ AMSAT $ORB09155.N 2Line Orbital Elements 09155.AMSAT
HR AMSAT ORBITAL ELEMENTS FOR AMATEUR SATELLITES IN NASA FORMAT FROM WA5QGD FORT WORTH,TX June 4, 2009 Send Subscribe/unsubscribe to KEPS at http://www.amsat.org/mailman/listinfo/keps BID: ORB09155.N
DECODE 2-LINE ELSETS WITH THE FOLLOWING KEY: 1 AAAAAU 00 0 0 BBBBB.BBBBBBBB .CCCCCCCC 00000-0 00000-0 0 DDDZ 2 AAAAA EEE.EEEE FFF.FFFF GGGGGGG HHH.HHHH III.IIII JJ.JJJJJJJJKKKKKZ KEY: A-CATALOGNUM B-EPOCHTIME C-DECAY D-ELSETNUM E-INCLINATION F-RAAN G-ECCENTRICITY H-ARGPERIGEE I-MNANOM J-MNMOTION K-ORBITNUM Z-CHECKSUM
TO ALL RADIO AMATEURS BT
AO-07 1 07530U 74089B 09154.60145735 -.00000027 00000-0 10000-3 0 04958 2 07530 101.4262 179.7765 0011526 295.6466 064.3414 12.53575776581013 FO-29 1 24278U 96046B 09155.57922177 -.00000028 00000-0 69033-5 0 581 2 24278 098.5554 031.3090 0350875 023.2013 338.4577 13.52943628632041 SO-33 1 25509U 98061B 09153.93609278 .00000102 00000-0 58612-5 0 04688 2 25509 031.4325 133.0751 0354662 213.9357 143.8106 14.28254611553793 RS-22 1 27939U 03042A 09154.79633764 .00000046 00000-0 17686-4 0 08062 2 27939 097.9464 030.1526 0013713 170.2945 189.8518 14.63320039303615 VO-52 1 28650U 05017B 09154.87989992 .00000354 00000-0 51244-4 0 02416 2 28650 097.7431 216.9009 0028357 073.8433 286.5901 14.81590878220673 AO-16 1 20439U 90005D 09154.92659306 .00000001 00000-0 15684-4 0 06201 2 20439 098.2773 123.9330 0010338 206.2051 153.8611 14.31825316011256 LO-19 1 20442U 90005G 09154.91587116 .00000022 00000-0 23276-4 0 05403 2 20442 098.2397 131.2366 0011468 202.4013 157.6672 14.32061136011414 AO-27 1 22825U 93061C 09154.91447579 -.00000049 00000-0 -24941-5 0 02604 2 22825 098.4357 108.7563 0007594 307.5779 052.4727 14.29266375818010 IO-26 1 22826U 93061D 09153.78711509 .00000018 00000-0 23714-4 0 09849 2 22826 098.4283 108.4191 0008201 307.3481 052.6948 14.29518592817957 GO-32 1 25397U 98043D 09154.71440132 -.00000003 00000-0 16806-4 0 09103 2 25397 098.3268 177.7768 0000317 340.2258 019.8903 14.23159392566211 NO-44 1 26931U 01043C 09154.85159991 .00000119 00000-0 78951-4 0 01846 2 26931 067.0514 098.6993 0005502 271.0258 089.0244 14.29558471400677 SO-50 1 27607U 02058C 09154.86697272 -.00000149 00000-0 -97725-6 0 09018 2 27607 064.5595 065.5448 0068880 208.6257 151.1025 14.71438477346712 CO-55 1 27844U 03031E 09154.53994926 .00000033 00000-0 35606-4 0 05938 2 27844 098.7119 163.8980 0009705 177.8073 182.3146 14.20640184307321 CO-57 1 27848U 03031J 09154.51557780 .00000003 00000-0 21984-4 0 05406 2 27848 098.7141 162.9359 0009399 182.6112 177.5015 14.20441651307281 AO-51 1 28375U 04025K 09154.97656908 .00000012 00000-0 16130-4 0 04055 2 28375 098.0522 165.3510 0083466 164.5857 195.7898 14.40643634259050 CO-56 1 28941U 06005C 09154.88909837 .00060236 38323-5 21412-3 0 01329 2 28941 098.1343 326.8395 0089848 182.4635 177.6290 15.82740817185140 GENESAT1 1 29655U 06058C 09154.72390321 .00009331 00000-0 93674-4 0 07304 2 29655 040.0249 267.6647 0002187 339.9251 020.1479 15.65364195140368 CP3 1 31129U 07012N 09155.14913900 .00000091 00000-0 31894-4 0 9734 2 31129 097.9896 208.8493 0101837 326.2965 033.1781 14.52134661112991 CO-65 1 32785U 08021C 09155.22476700 .00000216 00000-0 34307-4 0 3820 2 32785 097.9451 219.2976 0016272 075.1248 285.1760 14.81487293 59520 KKS-1 1 33493U 09002B 09155.52971484 .00000211 00000-0 34452-4 0 4433 2 33493 098.0557 267.6836 0018872 284.3677 075.5437 14.80676737 19593 SOHLA-1 1 33496U 09002E 09155.44876675 .00000032 00000-0 13585-4 0 4045 2 33496 098.0369 264.9556 0006242 334.8672 025.2226 14.69435631 19401 NOAA-10 1 16969U 86073A 09154.62825791 -.00000101 00000-0 -23033-4 0 06361 2 16969 098.6916 181.3493 0011429 235.3790 124.6314 14.27387074181573 NOAA-11 1 19531U 88089A 09154.77130925 -.00000179 00000-0 -70025-4 0 06483 2 19531 098.7840 244.9309 0012040 143.6100 216.5881 14.14896023067620 NOAA-12 1 21263U 91032A 09154.98246763 .00000017 00000-0 26115-4 0 01565 2 21263 098.7712 163.0372 0012078 179.9811 180.1372 14.25580821938510 MET-3/5 1 21655U 91056A 09154.93060965 .00000051 00000-0 10000-3 0 06499 2 21655 082.5517 215.8562 0012488 210.9664 149.0723 13.17019111855884 MET-2/21 1 22782U 93055A 09153.64408719 -.00000121 00000-0 -12265-3 0 4732 2 22782 082.5474 193.5428 0023307 031.2708 328.9835 13.83634777795593 OKEAN-4 1 23317U 94066A 09154.73745541 .00000151 00000-0 15653-4 0 09267 2 23317 082.5389 347.0394 0023695 051.4469 308.8855 14.82700276790377 NOAA-14 1 23455U 94089A 09154.65311087 -.00000243 00000-0 -10464-3 0 06412 2 23455 098.9094 232.3798 0008741 225.2665 134.7802 14.13761762744011 NOAA-15 1 25338U 98030A 09154.92054847 .00000228 00000-0 11602-3 0 09501 2 25338 098.5837 144.4194 0011768 095.8115 264.4397 14.24764355574880 RESURS 1 25394U 98043A 09153.68746039 -.00000011 00000-0 13071-4 0 2271 2 25394 098.3410 186.7725 0000524 277.6463 082.4656 14.24183647566336 FENGYUN1 1 25730U 99025A 09154.92188398 -.00000851 00000-0 -47533-3 0 07741 2 25730 098.7560 125.4861 0019763 259.9178 099.9764 14.07928841518459 OKEAN-0 1 25860U 99039A 09154.52294934 .00000022 00000-0 10595-4 0 06948 2 25860 097.7843 136.2472 0000840 112.6108 247.5190 14.73575115531137 NOAA-16 1 26536U 00055A 09154.97547728 .00000173 00000-0 11871-3 0 04278 2 26536 099.1770 158.3233 0010030 323.4612 036.5858 14.12521435448433 NOAA-17 1 27453U 02032A 09154.65091127 -.00000057 00000-0 -63247-5 0 04365 2 27453 098.4857 214.1867 0012069 158.5951 201.5756 14.24066762360828 NOAA-18 1 28654U 05018A 09154.64742268 -.00000199 00000-0 -85576-4 0 09241 2 28654 098.9065 097.9911 0015211 044.3020 315.9345 14.11260686208042 NOAA-19 1 33591U 09005A 09154.69540111 .00000295 00000-0 18793-3 0 01260 2 33591 098.7452 100.8068 0013128 283.2472 076.7226 14.10962206016530 HUBBLE 1 20580U 90037B 09154.14808949 .00000254 00000-0 66516-5 0 04036 2 20580 028.4700 193.9309 0003605 133.1182 226.9657 15.00806014847747 ISS 1 25544U 98067A 09154.91441992 .00015273 00000-0 11194-3 0 09715 2 25544 051.6417 015.0105 0009514 076.7415 023.9527 15.73350643603865 CO-58 1 28895U 05043F 09154.90342595 .00000004 00000-0 10358-4 0 03214 2 28895 098.0634 045.8914 0018597 032.9991 327.2373 14.59771502191793 FALCON 1 30776U 07006E 09154.48350213 .00000166 00000-0 15033-4 0 05895 2 30776 035.4328 182.5531 0000563 209.2693 150.7991 15.03248335123035 MAST 1 31126U 07012K 09154.88598693 -.00000011 00000-0 82653-5 0 06111 2 31126 097.9927 210.3011 0093728 321.8125 037.6438 14.53497927113105 CAPE1 1 31130U 07012P 09154.63605150 .00000001 00000-0 11209-4 0 06178 2 31130 097.9927 208.2769 0101678 328.0461 031.4581 14.52059977112728 COMPASS 1 32787U 08021E 09155.20267109 .00000174 00000-0 28850-4 0 3730 2 32787 097.9422 219.1358 0017086 075.5641 284.7463 14.81606827 59529 AAUSAT2 1 32788U 08021F 09154.63138611 .00000390 00000-0 56117-4 0 03751 2 32788 097.9416 218.6245 0016811 077.2912 283.0183 14.81731005059446 DO-64 1 32789U 08021G 09153.70747479 .00000284 00000-0 42794-4 0 03845 2 32789 097.9481 217.8620 0016966 079.2494 281.0612 14.81710757059306 CO-66 1 32791U 08021J 09154.36595056 .00000261 00000-0 40054-4 0 03722 2 32791 097.9459 218.3401 0017360 075.1722 285.1405 14.81437747059361 RS-30 1 32953U 08025A 09154.74798581 .00000010 00000-0 00000 0 0 3203 2 32953 082.5014 264.9669 0018741 204.5807 155.4384 12.43001397 46722 TACSAT-3 1 35001U 09028A 09155.36137863 .00001911 00000-0 54291-4 0 184 2 35001 040.4571 317.3476 0024324 063.2103 297.1199 15.38783122 2373 PHARMSAT 1 35002U 09028B 09153.86167682 .00001681 00000-0 47252-4 0 00239 2 35002 040.4705 326.2242 0027074 056.5765 303.7632 15.39553607002131 HAWKSAT1 1 35003U 09028C 09153.85923822 .00002609 00000-0 69378-4 0 183 2 35003 040.4717 326.2150 0026816 063.7691 296.5880 15.39829972 2140 CP6 1 35004U 09028D 09153.85831797 .00003168 00000-0 82504-4 0 00180 2 35004 040.4631 326.1835 0028478 058.7032 301.6568 15.39948102002131 AEROCUB3 1 35005U 09028E 09155.22208032 .00003336 00000-0 87217-4 0 132 2 35005 040.4765 318.0744 0026648 069.8217 290.5457 15.39768439 2343 /EX
_______________________________________________ Via the Keps mailing list courtesy of AMSAT-NA http://amsat.org/mailman/listinfo/keps